Theta_e
298 299 298 298 298 301 301 301 300 297 296 296 296 295 295 295 295 297 297 296 295 295 295 294 293 294 292 289 288 287 286 287 288 281 281 280 280 280 281 282 282 282 283
297 297 297 297 295 295 295 296 293 292 290 290 290 292 292 292 293 294 294 294 293 293 293 293 293 293 291 289 288 287 287 287 288 283 279 279 279 280 280 281 280 281 280
295 295 295 294 294 294 293 292 290 290 289 287 287 287 287 289 290 292 293 292 292 293 293 292 292 291 290 290 287 287 287 286 285 281 277 279 278 279 279 280 279 279 280
293 293 293 293 293 293 292 290 289 288 288 287 286 286 286 287 287 288 288 289 290 290 291 291 291 290 290 288 287 286 286 284 283 282 278 278 278 278 279 277 276 278 277
291 291 291 291 291 290 289 289 288 287 287 286 286 283 283 285 286 286 286 287 288 288 288 288 289 289 289 290 287 286 285 284 282 281 278 277 277 276 276 277 277 276 277
287 287 288 288 288 288 288 287 287 286 283 283 283 283 283 284 287 290 288 286 286 287 287 286 287 286 286 289 290 289 286 284 281 281 280 278 278 278 278 277 277 274 273
285 285 285 285 285 287 287 284 284 284 282 283 282 283 283 284 288 289 289 287 285 286 286 286 285 285 284 285 288 289 288 289 287 283 282 280 278 278 278 276 277 277 277
283 283 283 283 283 284 284 284 284 283 282 284 284 283 284 284 288 289 289 287 286 285 284 284 284 283 283 283 284 284 284 285 285 284 283 281 281 280 279 279 278 277 274
282 282 282 282 281 282 282 282 281 279 279 281 281 280 280 282 287 288 287 285 285 284 283 283 283 282 283 285 283 283 282 282 286 287 285 285 285 284 282 279 276 275 272
281 281 281 280 278 279 280 280 277 276 280 278 280 277 279 279 284 287 287 284 283 283 282 281 282 282 284 286 283 282 280 280 281 281 282 283 284 284 285 281 278 275 272
279 279 278 277 276 276 276 274 273 275 279 280 280 280 280 280 281 285 286 285 284 284 282 280 281 285 285 285 286 282 282 281 282 281 280 280 280 280 280 279 278 278 273
277 276 276 274 275 276 273 281 281 281 281 281 279 280 279 280 281 283 285 286 286 284 282 281 280 283 285 285 285 285 286 285 281 280 279 278 278 278 279 277 277 277 276
272 272 272 274 274 273 274 282 281 280 280 280 279 279 277 277 278 283 284 285 285 284 283 282 282 283 284 284 285 287 284 284 280 279 278 278 279 280 279 277 276 276 275
272 274 274 273 274 272 275 281 281 281 280 280 280 280 280 278 274 274 277 280 280 283 284 282 282 282 283 283 282 284 284 282 279 278 278 278 277 277 277 277 275 274 274
266 270 274 276 274 273 276 279 280 281 281 280 281 281 280 280 275 281 281 279 277 279 281 279 279 279 279 280 281 282 283 280 279 279 277 275 275 275 276 276 276 274 272
263 267 268 272 275 276 275 277 282 283 284 285 286 285 284 283 285 285 284 285 284 284 278 272 276 278 278 278 279 280 281 278 278 278 277 276 275 274 274 274 274 273 271
258 262 264 267 272 275 276 276 276 279 283 284 285 285 286 286 286 286 285 285 285 285 280 270 276 278 278 279 279 279 279 280 279 278 278 277 276 275 274 273 273 272 272
257 260 262 265 269 275 276 276 277 277 276 277 276 280 282 283 284 285 286 285 281 277 277 274 273 278 279 278 278 279 279 280 278 278 278 278 277 276 274 274 273 272 272
259 261 262 264 268 273 276 276 277 277 274 270 269 275 273 280 282 283 285 283 279 274 273 277 274 277 279 279 279 279 279 279 279 278 278 278 277 276 276 275 275 274 273
259 262 264 264 268 272 275 276 275 273 273 272 272 270 273 275 269 266 272 275 275 272 274 274 274 275 277 279 279 279 278 279 278 278 277 277 277 277 276 275 275 274 273
260 262 263 264 268 272 275 275 275 273 272 274 271 275 277 268 268 264 264 264 264 265 266 267 267 268 269 269 271 276 278 278 278 277 277 277 277 276 276 276 275 275 274
260 261 262 264 266 268 269 269 270 270 271 270 268 267 270 264 262 261 261 260 261 261 262 264 264 263 263 263 264 266 267 268 268 269 272 275 277 276 276 275 275 275 274
258 259 259 261 263 264 265 264 265 265 265 264 264 263 262 261 260 259 258 259 259 259 260 261 261 261 261 261 262 262 262 262 263 265 266 267 269 271 272 272 271 270 269
256 257 259 260 261 261 261 261 262 263 262 262 261 261 261 260 260 259 258 258 258 259 260 260 260 260 260 261 261 262 263 264 263 263 264 265 266 267 267 267 267 266 266
254 257 257 258 259 259 260 260 261 261 261 261 260 260 260 260 260 258 258 258 259 259 259 259 259 258 258 258 258 260 263 263 261 261 258 260 261 261 261 261 261 260 261
255 256 257 257 257 258 258 258 258 259 259 259 259 259 260 259 259 259 258 257 257 257 257 256 257 257 256 257 257 262 264 265 265 262 259 258 257 256 255 255 255 253 254
Wind_Speed
4 3 2 3 3 2 3 4 4 3 4 5 5 5 6 6 5 6 6 7 11 10 9 11 13 12 8 8 8 9 9 8 12 1 3 4 11 12 10 9 9 9 8
5 4 4 2 1 2 3 4 4 5 5 6 6 5 5 6 6 8 8 7 10 10 11 11 12 8 12 10 9 12 12 11 10 8 4 4 5 13 12 12 9 7 7
7 5 5 4 4 4 6 4 3 4 5 5 5 6 6 6 6 7 8 8 9 10 10 11 12 11 11 9 11 11 10 8 8 4 4 3 2 8 8 6 8 7 5
5 7 6 7 5 5 4 4 4 4 5 5 6 6 6 6 7 6 6 6 7 8 8 9 10 12 13 12 11 12 10 9 9 6 4 4 4 6 9 9 7 5 7
9 7 6 6 6 6 5 5 5 4 5 5 5 4 4 6 5 6 7 8 9 9 9 10 11 12 17 15 9 11 11 10 8 9 5 4 7 6 13 10 8 6 5
7 8 7 7 7 5 5 6 5 6 4 4 5 5 6 5 10 14 10 8 9 10 11 10 10 11 13 20 22 20 17 14 13 9 8 9 10 9 10 9 10 5 5
6 6 7 7 7 7 7 4 5 5 4 5 5 4 7 6 10 13 14 8 9 10 10 9 8 7 10 9 17 20 18 21 20 14 13 9 9 10 12 12 13 9 6
7 8 8 9 7 6 6 6 4 3 4 4 4 6 5 5 11 15 16 9 9 10 9 9 8 6 8 9 9 10 11 11 12 7 8 9 9 12 14 14 11 6 5
10 10 10 8 9 8 8 6 4 3 3 3 3 3 4 5 11 14 13 7 9 11 8 8 8 7 10 17 10 11 8 6 9 12 11 11 16 18 14 8 8 9 4
9 9 7 7 7 8 7 8 3 3 4 3 3 3 5 5 11 14 13 6 9 7 7 7 12 9 14 18 11 10 9 7 7 6 7 11 13 12 20 13 10 10 4
8 8 6 5 6 5 6 3 4 4 4 4 4 4 5 6 8 15 15 8 7 7 7 5 5 16 17 18 19 10 11 10 14 8 7 5 5 7 7 7 10 8 6
9 9 8 6 5 4 4 5 4 5 5 6 5 5 4 6 9 12 14 16 15 9 8 5 5 14 17 18 15 15 18 15 7 7 7 7 7 7 8 8 8 4 2
9 8 7 9 5 5 5 8 6 3 3 4 4 5 4 3 4 11 13 16 16 11 5 8 12 14 16 15 19 17 16 8 7 7 8 7 9 8 7 6 5 4 4
11 12 9 8 9 5 4 4 5 5 4 4 4 5 4 3 3 3 3 6 10 10 11 8 10 11 13 11 7 13 8 7 8 7 6 5 4 6 6 6 5 6 4
8 9 9 9 8 8 6 6 5 5 5 5 5 4 5 6 3 8 9 5 4 7 4 2 4 4 5 5 5 7 6 5 7 5 5 5 6 5 5 5 4 4 6
8 7 7 8 9 8 8 9 10 14 15 15 16 11 5 11 14 15 15 14 13 13 1 2 4 5 5 5 6 4 6 6 6 7 6 7 7 8 7 5 5 6 7
5 8 7 8 8 8 8 7 11 7 11 9 9 12 14 14 15 14 14 14 12 10 3 3 4 5 5 5 5 5 6 6 8 7 7 7 7 6 8 7 7 6 7
6 9 6 7 8 8 7 7 6 7 6 4 5 9 11 13 14 14 13 10 3 4 2 3 4 5 5 5 5 5 5 4 5 6 6 6 6 7 7 7 8 8 7
7 7 6 7 8 9 8 7 6 6 5 4 3 5 5 8 11 11 11 4 2 3 2 2 3 3 5 5 5 5 5 5 5 5 6 6 6 7 7 7 7 10 10
6 10 9 7 7 8 7 7 5 5 4 3 2 3 3 2 4 4 4 5 3 2 3 2 1 2 2 3 3 4 4 4 5 5 5 5 6 6 7 7 7 6 7
6 7 9 7 7 7 7 7 5 3 3 2 2 5 9 4 4 4 4 5 5 5 5 5 5 5 5 5 5 4 1 3 4 5 5 5 5 5 6 6 6 6 6
6 6 6 6 6 7 6 5 5 4 4 4 3 5 11 4 4 4 4 4 4 4 4 4 4 5 5 5 5 4 4 5 5 5 5 3 4 5 5 5 5 5 5
5 6 6 5 5 6 5 5 5 5 5 5 4 4 4 4 3 3 3 3 4 4 4 5 4 4 4 4 4 4 4 4 3 4 4 4 3 3 3 1 1 1 2
5 5 6 5 5 5 5 5 4 6 5 4 4 4 4 4 4 4 2 2 2 3 4 4 4 6 5 5 4 4 4 3 3 3 4 3 3 3 2 1 1 1 2
5 5 5 6 6 5 5 5 5 5 5 5 4 4 3 3 3 3 3 3 3 3 4 4 4 5 5 6 5 6 6 6 4 4 2 3 4 4 3 2 2 2 2
4 5 5 4 5 5 5 5 4 4 4 4 4 3 3 3 3 3 3 3 3 3 3 2 4 5 6 4 6 6 7 8 5 3 3 3 3 3 3 3 4 2 2
Wind_Direction
360 331 279 280 277 240 211 215 206 175 204 210 200 197 192 194 190 199 193 186 201 207 209 214 218 216 208 208 204 205 209 204 236 92 171 165 182 190 190 186 185 188 208
343 339 325 311 204 212 245 228 183 213 203 212 203 204 200 197 192 201 205 198 204 207 208 211 220 214 213 205 204 212 214 208 217 203 163 164 182 191 186 179 189 192 192
349 348 344 340 344 289 263 268 237 232 227 207 196 209 210 210 210 216 217 211 212 218 216 216 223 212 216 214 210 216 217 210 205 160 156 151 129 175 173 174 190 186 190
337 12 347 324 301 281 290 277 258 242 240 230 227 217 210 207 208 208 212 219 224 225 221 218 218 214 220 215 213 215 209 199 195 178 160 153 168 180 183 175 190 188 191
4 3 342 316 321 324 304 285 276 255 249 240 237 238 231 207 202 219 218 222 222 225 220 219 218 218 220 218 207 212 203 204 195 190 169 158 176 162 188 185 191 181 194
9 0 345 343 336 322 303 294 281 267 244 233 232 223 222 227 239 232 225 231 231 232 237 232 230 222 224 225 222 217 202 193 192 189 184 192 186 182 178 183 182 167 203
12 360 358 347 336 329 314 303 273 250 206 239 253 232 249 245 247 245 242 240 239 238 243 238 225 219 212 217 225 224 219 216 200 188 192 190 175 175 177 180 190 187 192
9 2 356 352 337 323 311 290 271 253 253 258 253 241 244 255 244 243 242 240 254 262 254 244 239 231 208 203 203 209 206 206 207 192 192 183 185 188 189 188 180 148 76
4 355 350 346 335 332 332 320 301 276 247 235 238 257 241 265 267 265 260 245 245 244 240 233 229 227 210 214 209 214 196 185 182 176 183 205 209 181 163 131 155 166 175
351 334 325 331 331 328 321 317 295 293 289 309 282 245 259 264 273 274 268 248 250 246 235 216 211 220 214 218 213 203 201 180 164 173 183 203 189 179 183 183 168 175 146
326 322 320 324 316 301 312 316 323 323 314 303 291 281 268 256 268 274 273 265 253 256 243 225 211 223 228 224 219 205 200 167 188 183 169 158 149 163 177 185 184 171 159
329 325 324 319 323 327 322 323 325 320 316 313 307 298 262 261 257 273 278 269 265 256 247 229 204 220 237 231 229 209 202 189 186 178 171 171 176 182 185 179 181 193 198
328 325 319 320 315 327 319 324 314 293 289 297 289 289 279 272 262 280 280 280 272 270 247 217 213 216 234 234 232 218 209 208 181 180 186 189 194 193 162 150 153 153 130
329 327 327 324 324 315 307 287 291 292 295 286 289 295 296 271 274 274 272 281 283 277 279 220 211 209 218 222 229 235 217 190 179 184 189 176 133 153 173 166 170 176 178
322 320 321 321 318 313 299 290 282 260 258 278 278 277 292 298 273 296 297 282 264 271 273 167 192 201 218 231 228 219 228 176 189 181 166 159 172 170 182 165 171 168 199
324 320 316 309 311 308 311 310 289 277 277 274 274 273 270 258 280 291 305 296 290 281 174 176 192 197 206 221 231 209 211 170 187 183 182 177 181 184 183 179 177 193 206
303 303 302 301 294 297 301 299 306 304 277 278 303 305 301 298 300 285 280 302 292 285 243 185 204 205 208 204 209 206 209 196 181 191 191 191 183 183 180 185 187 193 212
293 286 282 291 290 294 290 286 281 282 292 294 318 312 300 303 296 298 295 282 309 298 231 191 201 208 208 204 208 213 211 200 187 193 192 191 191 189 188 193 191 197 210
305 299 293 292 285 287 284 277 272 270 275 276 305 316 315 316 318 302 301 265 223 242 243 203 201 205 220 215 216 213 207 207 206 197 199 197 197 199 210 204 203 200 201
289 289 296 294 290 289 287 280 276 268 262 260 284 270 287 337 12 335 4 358 357 342 328 307 319 219 212 212 205 212 207 209 211 213 208 206 204 207 218 213 210 206 206
301 302 303 297 297 299 299 291 280 259 249 261 73 7 43 74 56 39 28 21 18 17 7 12 9 17 21 24 21 8 284 221 213 210 210 212 210 212 217 219 219 217 205
311 306 309 307 315 320 333 337 344 360 16 62 44 26 51 56 56 50 40 29 10 8 4 8 31 31 19 16 13 21 25 31 25 13 5 327 233 222 218 215 216 215 203
321 318 322 324 333 338 356 358 5 15 31 29 26 30 28 42 35 54 51 25 23 11 9 22 26 29 22 23 20 21 38 25 356 352 355 354 1 6 5 16 122 123 154
333 330 334 338 350 356 2 7 13 23 31 35 36 39 38 28 36 31 18 17 47 35 24 19 27 32 21 22 14 11 353 28 14 8 358 356 358 359 16 74 130 151 163
347 348 351 353 351 356 359 8 13 18 25 28 24 32 27 29 30 6 7 2 19 44 45 28 23 16 22 20 9 2 353 15 23 27 21 37 41 36 46 63 82 70 89
348 354 350 351 356 356 2 3 5 6 9 11 11 11 10 14 7 359 6 360 7 4 29 28 5 7 1 356 338 357 357 339 325 69 43 42 52 51 56 73 73 75 87